Orbital Elements at Epoch 2459200.5 (2020-Dec-17.0) TDB
Reference: JPL 20 (heliocentric ecliptic J2000)
Element | Value | Uncertainty (1-sigma) | Units |
e | .0731696038499325 | 5.485e-08 | |
a | 3.204325731598022 | 3.6268e-08 | au |
q | 2.96986648721085 | 1.8625e-07 | au |
i | 12.1343855446093 | 6.5378e-06 | deg |
node | 72.84570880710311 | 2.7054e-05 | deg |
peri | 46.51916014560032 | 5.418e-05 | deg |
M | 50.14978665628172 | 4.448e-05 | deg |
tp | 2458908.643075382010 (2020-Feb-29.14307538) | 0.00025901 | TDB |
period | 2095.093516201741 5.74 | 3.557e-05 9.739e-08 | d yr |
n | .1718300387147658 | 2.9173e-09 | deg/d |
Q | 3.438784975985195 | 3.8922e-08 | au |
|
| | Orbit Determination Parameters
Additional Information
|